sat.trackr.live / text

‹ back to catalog

STARLINK-6233

NORAD 57229 · 2023-094M

PAYLOAD ACTIVE UNKNOWN

§ Identity

Operator
Country
US
Launch date
2023-07-07
Launch site
AFWTR
Launch vehicle
Mass (kg)
RCS (m²)

Purposes: comms

External: N2YO · Heavens-Above · Gunter

§ Orbital elements

Epoch: 2026-09-20T08:29:07.362816Z

Period
94.27 min
Inclination
43.0055°
Eccentricity
0.0001699
Mean motion
15.27573696 rev/d
Perigee alt
481.9 km
Apogee alt
484.2 km
Semi-major
6,861.2 km
B*
-4.9622e-6
RAAN
11.6337°
Arg perigee
274.2945°
Mean anomaly
85.7712°
Rev number
17,688

§ Raw data

STARLINK-62331 57229U 23094M   26263.35355744 -.00000399  00000+0 -49622-5 0  99982 57229  43.0055  11.6337 0001699 274.2945  85.7712 15.27573696176884

JSON: /api/v1/satellites/57229 · /tle

For live sub-satellite position, see the globe view (requires WebGL).

§ Visibility from observer

Set your observer location to see the next 7 days of passes ≥ 10°. The values pass through the URL so the page stays shareable.

No JS? Fill the form by hand. The geolocation button needs JavaScript.